Regional Weather Roundup
Issued by NWS Charleston, SC

Current Version | Previous Version | Graphics & Text | Print | Product List | Glossary On
Versions: 1 2 3 4 5 6 7 8 9 10 11 12 13 14 15 16 17 18 19 20 21 22 23 24 25 26 27 28 29 30 31 32 33 34 35 36 37 38 39 40 41 42 43 44 45 46 47 48 49 50
000
ASUS42 KCHS 012010
RWRCHS

REGIONAL WEATHER ROUNDUP
NATIONAL WEATHER SERVICE CHARLESTON SC
400 PM EDT MON SEP 01 2014

NOTE: "FAIR" INDICATES FEW OR NO CLOUDS BELOW 12,000 FEET WITH NO
SIGNIFICANT WEATHER AND/OR OBSTRUCTIONS TO VISIBILITY.

NOT ALL STATIONS ARE QUALITY CONTROLLED BY THE NATIONAL
WEATHER SERVICE. USE DATA WITH CAUTION...ESPECIALLY
DEWPOINT OBSERVATIONS.

SCZ027-030-031-034>040-042>050-012100-
...SOUTH CAROLINA...

CITY           SKY/WX    TMP DP  RH WIND       PRES   REMARKS
N CHARLESTON   MOSUNNY   92  75  57 S12       30.06F HX 103
WATERFRONT PRK   N/A     86 N/A N/A SE10        N/A
FORT JOHNSON   NOT AVBL
MOUNT PLEASANT FAIR      90  79  70 S10       30.07F HX 105
JOHNS ISLAND   CLEAR     90  79  70 SE7       30.07F HX 105
PINOPOLIS        N/A     93  70  46 CALM      29.98F HX  99
MONCKS CORNER  NOT AVBL
SUMMERVILLE    MOCLDY    97  72  44 E5        30.06F HX 105
BEAUFORT MCAS  MOSUNNY   91  75  59 S7        30.06F HX 101
BEAUFORT ARPT  FAIR      90  77  66 S6        30.06F HX 102
HILTON HEAD IS SUNNY     88  73  62 S8        30.08F HX  96
GEORGETOWN     NOT AVBL
WALTERBORO     PTCLDY    95  63  34 SE5       30.05F HX  96
ORANGEBURG     MOSUNNY   95  71  45 VRB3      30.05F HX 102
BARNWELL       FAIR      95  70  43 CALM      30.05F HX 101
AIKEN          FAIR      90  75  62 SE5       30.09F HX 100
MANNING        FAIR      95  70  43 S8        30.05F HX 101
KINGSTREE      NOT AVBL
COLUMBIA       MOSUNNY   97  64  33 S8        30.02F HX  99
SUMTER         MOSUNNY   98  70  40 VRB3      30.03F HX 104
FLORENCE       MOSUNNY   96  71  44 S10       30.03F HX 103
MYRTLE BEACH   MOSUNNY   90  75  62 S13       30.08F HX 100
N MYRTLE BEACH SUNNY     87  76  69 S14       30.06F HX  97

$$

GAZ063-065-086>088-099>101-113>116-118-119-134-136>141-150-012100-
...GEORGIA...

CITY           SKY/WX    TMP DP  RH WIND       PRES   REMARKS
SAVANNAH ARPT  PTSUNNY   93  74  53 SE7       30.05F HX 103
HUNTER AAF     SUNNY     91  76  61 VRB6      30.04F HX 102
FORT STEWART   SUNNY     96  71  44 VRB3      30.03F HX 102
STATESBORO     NOT AVBL
SYLVANIA       PTCLDY    84  71  63 CALM      30.06F
CLAXTON        NOT AVBL
THOMSON        PTSUNNY   92  79  65 N5        30.10F HX 107
AUGUSTA-BUSH   MOSUNNY   96  67  38 SE9       30.03F HX 100
AUGUSTA-DANIEL PTSUNNY   95  66  38 SW3       30.05F HX  98
SWAINSBORO     FAIR      95  70  43 CALM      30.05F HX 101
VIDALIA          N/A     97  72  44 CALM      30.05F HX 105
ALMA           MOSUNNY   93  72  50 SW5       30.05F HX 101
WAYCROSS       MOSUNNY   96  77  54 N5        30.05F HX 111
JESUP            N/A     99  73  44 SW3       30.04F HX 109
BRUNSWICK      SUNNY     91  72  52 E10G16    30.06F HX  98
SAINT SIMONS   SUNNY     88  75  65 SE10      30.06F HX  97

$$

SCZ027-028-034-036>038-045-046-048>050-GAZ119-141-012100-
...LAKE AND SUPPLEMENTAL COASTAL OBSERVATIONS...

STATION/POSITION TIME  TEMP    WIND        PRES    WAVE   SWELL
                       AIR SEA DIR/SP/G            HT/PER HT/PER/DIR
                 (UTC) (F)     (DEG/KT/KT) (MB)    (FT/S) (FT/S/D)
UPR LAKE MARION  NOT AVBL
WINYAH BAY       1900   85     150/ 10     1018.0F
LAKE MURRAY      1900   94     180/  5/  5 1016.9F
ACE BASIN NERRS  1900   89     180/  1     1019.0S
FORT PULASKI     2000   86     150/  7/ 10 1018.3F
SAPELO ISLAND    1900   93     130/  7     1020.0S

$$

ANZ835-935-AMZ111-154-330-350-352-354-374-450-454-472-012100-
...C-MAN AND BUOY OBSERVATIONS...

STATION/POSITION TIME  TEMP    WIND        PRES    WAVE   SWELL
                       AIR SEA DIR/SP/G            HT/PER HT/PER/DIR
                 (UTC) (F)     (DEG/KT/KT) (MB)    (FT/S) (FT/S/D)
FOLLY BEACH CMAN 1900   85     170/  8/  9 1019.3F
BUOY 41004       2000   83 85  170/  6/  8 1018.4F   2/ 9   2/ 9
BUOY 41008       2000   84 88  150/  6/  8 1018.3F   2/ 9   2/120/ 9
5E ST. MARYS GA  1900      86                N/A     2/ 9
FRYING PAN BUOY  NOT AVBL
BUOY 41025       2000   83     200/ 14/ 16 1018.1F   3/ 8   2/120/ 8
CAPE LOOKOUT NC  1900   83     190/ 10/ 12 1018.7F
BUOY 41002       1926   82 85  220/  6/  8 1020.5F   3/ 9   3/110/ 9
BUOY 41010       2000   83 86  100/  4/  6 1019.3F   2/ 8   2/ 70/ 8
BUOY 41012       NOT AVBL
ST AUGUSTINE FL  2000   84     130/  9/ 10 1019.2F
CAPERS NEARSHORE 1900   86     180/  8/ 12   N/A
FRIPP NEARSHORE  NOT AVBL


$$



USA.gov is the U.S. government's official web portal to all federal, state and local government web resources and services.